LFRDEGJJ

Guest
Details From LFRD - Dinard Pleurtuit-St Malo
To EGJJ - Jersey
Flight Number -
Tags decoded
Created
Modified
Stats Distance 48 nm / 89 km
Max Altitude 0 ft / 0 m
Waypoints 3
Social Downloads 5
Likes 0
Share VATSIM

Download

Looking for another format? Having issues loading an existing format? Contact us
Advertisement - Login to hide

Notes

Requested: LFRD SHARK EGJJ

Route

LFRD SHARK EGJJ

ID Type Via Altitude Latitude Longitude Leg Dist Tot Dist Heading (true) Name
O LFRD APT - 0 ft / 0 m 48.58798˚ -2.07992˚ - 0 nm - Dinard Pleurtuit-St Malo
SHARK FIX - 0 ft / 0 m 49.18972˚ -2.42944˚ 38 nm 38 nm 339° / 339° -
O EGJJ APT - 0 ft / 0 m 49.20796˚ -2.19529˚ 9 nm 47 nm 83° / 83° Jersey

Altitude Profile

Advertisement - Login to hide

LFRD

Details ICAO LFRD (DNR)
Name Dinard Pleurtuit-St Malo
Region France
Timezone Europe/Paris (UTC+2.0)
Stats Elevation 216 ft / 66 m (AMSL)
Location 48.587983° -2.079916°
Runways 2
Magnetic Variation 0.738° W

METAR

LFRD 220830Z AUTO 30008KT 270V340 7000 NSC 16/12 Q1016

Decode

TAF

Not found

Departure Runways

ID Width Length Bearing (true) Bearing (mag) Surface Threshold Offset Overrun Length
12 148 ft / 45 m 4,909 ft / 1,496 m 115.13° 115.87° Asphalt 0 ft / 0 m 0 ft / 0 m
17 148 ft / 45 m 7,199 ft / 2,194 m 170.09° 170.83° Asphalt 0 ft / 0 m 0 ft / 0 m
30 148 ft / 45 m 4,909 ft / 1,496 m 295.14° 295.88° Asphalt 669 ft / 204 m 0 ft / 0 m
35 148 ft / 45 m 7,199 ft / 2,194 m 350.10° 350.84° Asphalt 0 ft / 0 m 0 ft / 0 m

EGJJ

Details ICAO EGJJ (JER)
Name Jersey
Region United Kingdom
Timezone Europe/Jersey (UTC+1.0)
Stats Elevation 277 ft / 84 m (AMSL)
Location 49.207964° -2.195294°
Runways 1
Magnetic Variation 0.841° W

METAR

EGJJ 220820Z 01011KT CAVOK 14/11 Q1015

Decode

TAF

Not found

Destination Runways

ID Width Length Bearing (true) Bearing (mag) Surface Threshold Offset Overrun Length
09 151 ft / 46 m 5,593 ft / 1,705 m 82.73° 83.57° Asphalt 200 ft / 61 m 0 ft / 0 m
27 151 ft / 46 m 5,593 ft / 1,705 m 262.74° 263.58° Asphalt 302 ft / 92 m 0 ft / 0 m

Approach Navaids

Runway Type Ident Frequency Range Bearing (true) Bearing (mag) Slope Elevation
09 Localiser IJJ 110.90 MHz 18 nm / 33 km 82.59° 83.43° - 277 ft / 84 m (AMSL)
09 Glidescope IJJ 110.90 MHz 10 nm / 19 km 82.74° 83.58° 3.00° 277 ft / 84 m (AMSL)
09 DME IJJ 110.90 MHz 18 nm / 33 km - - - 287 ft / 87 m (AMSL)
27 Localiser IDD 110.30 MHz 18 nm / 33 km 262.70° 263.54° - 277 ft / 84 m (AMSL)
27 Glidescope IDD 110.30 MHz 10 nm / 19 km 262.74° 263.58° 3.00° 277 ft / 84 m (AMSL)
27 DME IDD 110.30 MHz 18 nm / 33 km - - - 289 ft / 88 m (AMSL)

Popular Alternatives